Retour au catalogue

CZ-6A DEB

ActifPO
NORAD 61128·DEBRIS·🇨🇳 China

Lancé Aug 6, 2024 depuis Taiyuan Satellite Launch Center

Loading…

Prochains Passages (prochaines 24 heures)

TLE

FraisSource: Space-Track

Époque: Sep 14, 2026, 00:49 UTC

1 61128U 24140PW  26257.03458522  .00001991  00000-0  34832-3 0  9993
2 61128  89.1388 272.6344 0118293 294.9780  63.9184 14.63002462109928

Suivez CZ-6A DEB en temps réel avec AllMySat

Download on the App Store